33.6°F
Current conditions from King Hill
Updated every 5 minutes
 
  Friday September 19, 2014

Station Historical Data
Daily Summary for March 8, 2012 Units:  Metric    English   Both
« Previous Day
Next Day »
Daily Weekly Monthly Yearly Custom
  High: Low: Average:
Temperature: 14.3 °C 2.9 °C 10.4 °C
Dew Point: 9.4 °C -1.5 °C 3.5 °C
Humidity: 88% 45% 64%
Wind Speed: 27.4km/h 1.6km/h 16.3km/h
Wind Gust: 51.5km/h - -
Wind- - SW
Pressure: 1017.2 hPa 999.5 hPa -
Precipitation: 0 mm    
Historical Graphs
 
 
Tabular Data for March 8, 2012
Time Temperature Dew Point Pressure Wind Wind Speed Wind Gust Humidity Daily Rainfall
00:00 10 °C -1.4 °C 1017.2 hPa SSW 16.1 km/h 35.4 km/h 45% 0 mm
00:10 10.1 °C -1.3 °C 1017.2 hPa SSW 11.3 km/h 35.4 km/h 45% 0 mm
00:15 9.9 °C -1.4 °C 1017.2 hPa SSW 12.9 km/h 24.1 km/h 45% 0 mm
00:20 10.1 °C -1.3 °C 1017.2 hPa SSW 12.9 km/h 33.8 km/h 45% 0 mm
00:25 10 °C -1.4 °C 1017.2 hPa SSW 16.1 km/h 33.8 km/h 45% 0 mm
00:30 10.1 °C -1.3 °C 1017.2 hPa SSW 12.9 km/h 27.4 km/h 45% 0 mm
00:40 10 °C -1.4 °C 1017.2 hPa SSW 17.7 km/h 30.6 km/h 45% 0 mm
00:45 10 °C -0.8 °C 1016.8 hPa SSW 12.9 km/h 30.6 km/h 47% 0 mm
00:50 10 °C -1.4 °C 1016.8 hPa SSW 12.9 km/h 30.6 km/h 45% 0 mm
00:55 9.9 °C -1.5 °C 1016.8 hPa SSW 14.5 km/h 29 km/h 45% 0 mm
01:00 9.9 °C -1.4 °C 1016.8 hPa SSW 14.5 km/h 25.7 km/h 45% 0 mm
01:05 10 °C -1.4 °C 1016.8 hPa SSW 16.1 km/h 29 km/h 45% 0 mm
01:10 9.9 °C -1.5 °C 1016.5 hPa SSW 14.5 km/h 29 km/h 45% 0 mm
01:15 9.9 °C -1.2 °C 1016.5 hPa SSW 12.9 km/h 25.7 km/h 46% 0 mm
01:20 9.9 °C -1.4 °C 1016.5 hPa SW 14.5 km/h 35.4 km/h 45% 0 mm
01:25 9.8 °C -1.2 °C 1016.5 hPa SSW 14.5 km/h 35.4 km/h 46% 0 mm
01:30 9.9 °C -1.5 °C 1016.1 hPa SSW 19.3 km/h 32.2 km/h 45% 0 mm
01:35 9.9 °C -1.4 °C 1016.1 hPa SSW 16.1 km/h 32.2 km/h 45% 0 mm
01:40 9.9 °C -1.4 °C 1016.1 hPa SSW 16.1 km/h 30.6 km/h 45% 0 mm
01:45 9.9 °C -1.4 °C 1015.8 hPa SSW 12.9 km/h 30.6 km/h 45% 0 mm
01:50 10 °C -1.4 °C 1015.8 hPa SSW 19.3 km/h 30.6 km/h 45% 0 mm
01:55 9.9 °C -1.4 °C 1015.8 hPa SSW 16.1 km/h 35.4 km/h 45% 0 mm
02:00 9.9 °C -1.5 °C 1015.5 hPa SSW 16.1 km/h 35.4 km/h 45% 0 mm
02:05 9.9 °C -1.2 °C 1015.5 hPa SSW 17.7 km/h 33.8 km/h 46% 0 mm
02:15 9.8 °C -1.2 °C 1015.5 hPa SSW 14.5 km/h 37 km/h 46% 0 mm
02:20 9.8 °C -1.3 °C 1015.1 hPa SSW 12.9 km/h 37 km/h 46% 0 mm
02:25 9.8 °C -1.2 °C 1015.1 hPa SSW 12.9 km/h 37 km/h 46% 0 mm
02:30 9.9 °C -1.2 °C 1015.1 hPa SSW 17.7 km/h 33.8 km/h 46% 0 mm
02:40 10 °C -1.1 °C 1014.8 hPa SSW 12.9 km/h 35.4 km/h 46% 0 mm
02:45 10 °C -1.1 °C 1014.4 hPa SSW 12.9 km/h 30.6 km/h 46% 0 mm
02:50 10.1 °C -1.1 °C 1014.4 hPa SSW 17.7 km/h 30.6 km/h 46% 0 mm
02:55 10.2 °C -0.9 °C 1014.1 hPa SSW 16.1 km/h 32.2 km/h 46% 0 mm
03:00 10.2 °C -0.9 °C 1014.1 hPa SSW 16.1 km/h 32.2 km/h 46% 0 mm
03:05 10.3 °C -0.8 °C 1014.1 hPa SSW 12.9 km/h 30.6 km/h 46% 0 mm
03:15 10.2 °C -0.7 °C 1014.1 hPa SSW 16.1 km/h 30.6 km/h 47% 0 mm
03:20 10.2 °C -0.7 °C 1013.8 hPa SSW 16.1 km/h 30.6 km/h 47% 0 mm
03:25 10.1 °C -0.7 °C 1013.8 hPa SSW 14.5 km/h 38.6 km/h 47% 0 mm
03:30 10.1 °C -0.7 °C 1013.8 hPa SSW 16.1 km/h 38.6 km/h 47% 0 mm
03:35 10.2 °C -0.6 °C 1013.8 hPa SSW 12.9 km/h 33.8 km/h 47% 0 mm
03:45 10.2 °C -0.3 °C 1013.4 hPa SSW 14.5 km/h 29 km/h 48% 0 mm
03:50 10.1 °C -0.4 °C 1013.4 hPa SSW 12.9 km/h 29 km/h 48% 0 mm
03:55 10.2 °C -0.3 °C 1013.4 hPa SSW 22.5 km/h 43.5 km/h 48% 0 mm
04:00 10.3 °C -0.3 °C 1013.4 hPa SSW 14.5 km/h 43.5 km/h 48% 0 mm
04:05 10.1 °C -0.1 °C 1013.4 hPa SSW 14.5 km/h 37 km/h 49% 0 mm
04:10 10.1 °C 0.1 °C 1013.4 hPa SSW 12.9 km/h 30.6 km/h 50% 0 mm
04:15 10.1 °C 0.1 °C 1013.4 hPa SSW 16.1 km/h 29 km/h 50% 0 mm
04:20 10.3 °C 0.3 °C 1013.4 hPa SSW 20.9 km/h 38.6 km/h 50% 0 mm
04:25 10.2 °C 0.2 °C 1013.4 hPa SSW 17.7 km/h 38.6 km/h 50% 0 mm
04:30 10.2 °C 0.3 °C 1013.1 hPa SSW 20.9 km/h 40.2 km/h 50% 0 mm
04:35 10.2 °C 0.6 °C 1013.1 hPa SSW 16.1 km/h 40.2 km/h 51% 0 mm
04:40 10.2 °C 0.6 °C 1013.4 hPa SSW 14.5 km/h 32.2 km/h 51% 0 mm
04:45 10.2 °C 0.6 °C 1013.1 hPa SSW 19.3 km/h 40.2 km/h 51% 0 mm
04:50 10.2 °C 0.6 °C 1013.1 hPa SSW 14.5 km/h 40.2 km/h 51% 0 mm
05:00 10.2 °C 0.8 °C 1013.1 hPa SSW 16.1 km/h 37 km/h 52% 0 mm
05:05 10.2 °C 0.8 °C 1013.1 hPa SSW 16.1 km/h 35.4 km/h 52% 0 mm
05:10 10.2 °C 1.1 °C 1013.1 hPa SSW 20.9 km/h 38.6 km/h 53% 0 mm
05:15 10.3 °C 1.1 °C 1012.8 hPa SSW 24.1 km/h 38.6 km/h 53% 0 mm
05:20 10.3 °C 1.1 °C 1013.1 hPa SSW 17.7 km/h 37 km/h 53% 0 mm
05:25 10.3 °C 1.1 °C 1013.1 hPa SSW 16.1 km/h 35.4 km/h 53% 0 mm
05:30 10.2 °C 1.3 °C 1012.8 hPa SSW 17.7 km/h 33.8 km/h 54% 0 mm
05:35 10.2 °C 1.3 °C 1013.1 hPa SSW 17.7 km/h 33.8 km/h 54% 0 mm
05:40 10.2 °C 1.3 °C 1013.1 hPa SSW 17.7 km/h 37 km/h 54% 0 mm
05:45 10.3 °C 1.4 °C 1013.1 hPa SSW 17.7 km/h 37 km/h 54% 0 mm
05:50 10.2 °C 1.6 °C 1012.8 hPa SSW 19.3 km/h 40.2 km/h 55% 0 mm
05:55 10.1 °C 1.5 °C 1012.8 hPa SSW 19.3 km/h 40.2 km/h 55% 0 mm
06:00 10.1 °C 1.7 °C 1012.8 hPa SSW 17.7 km/h 35.4 km/h 56% 0 mm
06:05 10.2 °C 1.8 °C 1012.8 hPa SSW 14.5 km/h 35.4 km/h 56% 0 mm
06:10 10.1 °C 1.7 °C 1012.8 hPa SSW 17.7 km/h 43.5 km/h 56% 0 mm
06:20 10.1 °C 2 °C 1012.8 hPa SSW 19.3 km/h 38.6 km/h 57% 0 mm
06:25 10 °C 1.9 °C 1012.8 hPa SSW 16.1 km/h 38.6 km/h 57% 0 mm
06:30 9.9 °C 2 °C 1012.8 hPa SSW 16.1 km/h 32.2 km/h 58% 0 mm
06:40 9.9 °C 2.1 °C 1012.8 hPa SW 19.3 km/h 35.4 km/h 58% 0 mm
06:45 9.8 °C 1.9 °C 1012.4 hPa SSW 14.5 km/h 30.6 km/h 58% 0 mm
06:50 9.8 °C 2.2 °C 1012.4 hPa SSW 14.5 km/h 32.2 km/h 59% 0 mm
06:55 9.7 °C 2.1 °C 1012.4 hPa SSW 16.1 km/h 32.2 km/h 59% 0 mm
07:00 9.8 °C 2.2 °C 1012.4 hPa SSW 19.3 km/h 35.4 km/h 59% 0 mm
07:05 9.9 °C 2.3 °C 1012.4 hPa SSW 17.7 km/h 37 km/h 59% 0 mm
07:10 9.8 °C 2.2 °C 1012.1 hPa SSW 17.7 km/h 37 km/h 59% 0 mm
07:15 9.7 °C 2.3 °C 1012.1 hPa SSW 14.5 km/h 35.4 km/h 60% 0 mm
07:20 9.6 °C 2.4 °C 1011.7 hPa SSW 12.9 km/h 35.4 km/h 61% 0 mm
07:30 9.7 °C 2.6 °C 1011.7 hPa SSW 17.7 km/h 35.4 km/h 61% 0 mm
07:35 9.8 °C 2.7 °C 1011.7 hPa SSW 14.5 km/h 35.4 km/h 61% 0 mm
07:45 10.1 °C 2.7 °C 1011.7 hPa SSW 20.9 km/h 35.4 km/h 60% 0 mm
07:50 10.2 °C 2.8 °C 1011.4 hPa SSW 14.5 km/h 35.4 km/h 60% 0 mm
07:55 10.3 °C 2.8 °C 1011.4 hPa SSW 19.3 km/h 35.4 km/h 60% 0 mm
08:00 10.4 °C 2.9 °C 1011.4 hPa SSW 16.1 km/h 45.1 km/h 60% 0 mm
08:05 10.3 °C 3.2 °C 1011.4 hPa SSW 16.1 km/h 45.1 km/h 61% 0 mm
08:15 10.5 °C 3.3 °C 1011.1 hPa SSW 17.7 km/h 35.4 km/h 61% 0 mm
08:20 10.6 °C 3.2 °C 1011.4 hPa South 20.9 km/h 40.2 km/h 60% 0 mm
08:25 10.8 °C 3.4 °C 1011.4 hPa SSW 14.5 km/h 40.2 km/h 60% 0 mm
08:30 11 °C 3.3 °C 1011.1 hPa SSW 22.5 km/h 35.4 km/h 59% 0 mm
08:40 11.3 °C 3.6 °C 1011.1 hPa SSW 12.9 km/h 41.8 km/h 59% 0 mm
08:45 11.2 °C 3.5 °C 1010.7 hPa SSW 16.1 km/h 41.8 km/h 59% 0 mm
08:50 11.3 °C 3.6 °C 1010.7 hPa SSW 17.7 km/h 37 km/h 59% 0 mm
09:00 11.3 °C 3.6 °C 1010.4 hPa SSW 14.5 km/h 40.2 km/h 59% 0 mm
09:05 11.3 °C 3.6 °C 1010.4 hPa SSW 20.9 km/h 48.3 km/h 59% 0 mm
09:10 11.3 °C 3.6 °C 1010.4 hPa SSW 17.7 km/h 48.3 km/h 59% 0 mm
09:15 11.2 °C 3.7 °C 1010 hPa SSW 19.3 km/h 41.8 km/h 60% 0 mm
09:20 11.3 °C 3.8 °C 1010 hPa SW 14.5 km/h 35.4 km/h 60% 0 mm
09:30 11.7 °C 3.9 °C 1010 hPa SSW 16.1 km/h 29 km/h 59% 0 mm
09:40 11.7 °C 3.9 °C 1009.7 hPa SSW 19.3 km/h 33.8 km/h 59% 0 mm
09:45 11.7 °C 3.9 °C 1009.7 hPa SSW 19.3 km/h 35.4 km/h 59% 0 mm
09:50 11.7 °C 4 °C 1009.7 hPa SSW 19.3 km/h 40.2 km/h 59% 0 mm
09:55 12 °C 4.2 °C 1009.4 hPa SSW 17.7 km/h 40.2 km/h 59% 0 mm
10:00 12.2 °C 4.2 °C 1009.7 hPa SSW 11.3 km/h 40.2 km/h 58% 0 mm
10:05 12.3 °C 4.3 °C 1009.4 hPa SSW 19.3 km/h 40.2 km/h 58% 0 mm
10:10 12.2 °C 4.2 °C 1009.4 hPa SSW 19.3 km/h 33.8 km/h 58% 0 mm
10:15 12.2 °C 4.2 °C 1009 hPa SSW 16.1 km/h 41.8 km/h 58% 0 mm
10:20 12.2 °C 4.2 °C 1009 hPa SSW 20.9 km/h 41.8 km/h 58% 0 mm
10:25 12.1 °C 4.1 °C 1009 hPa SSW 16.1 km/h 35.4 km/h 58% 0 mm
10:35 12.1 °C 4.1 °C 1009 hPa SSW 11.3 km/h 30.6 km/h 58% 0 mm
10:40 11.9 °C 4.2 °C 1008.7 hPa SSW 12.9 km/h 30.6 km/h 59% 0 mm
10:50 12.1 °C 4.3 °C 1008.4 hPa SSW 12.9 km/h 29 km/h 59% 0 mm
10:55 12.2 °C 4.4 °C 1008.4 hPa SSW 12.9 km/h 27.4 km/h 59% 0 mm
11:05 12.5 °C 4.4 °C 1008.4 hPa SSW 16.1 km/h 32.2 km/h 58% 0 mm
11:10 12.5 °C 4.4 °C 1008.4 hPa SSW 14.5 km/h 30.6 km/h 58% 0 mm
11:15 12.3 °C 4.5 °C 1008.4 hPa SSW 8 km/h 30.6 km/h 59% 0 mm
11:20 12.2 °C 4.4 °C 1008 hPa SSW 16.1 km/h 30.6 km/h 59% 0 mm
11:25 12.3 °C 4.5 °C 1008 hPa SSW 16.1 km/h 30.6 km/h 59% 0 mm
11:30 12.3 °C 4.5 °C 1008 hPa SSW 11.3 km/h 30.6 km/h 59% 0 mm
11:35 12.4 °C 4.7 °C 1008 hPa SSW 16.1 km/h 33.8 km/h 59% 0 mm
11:40 12.6 °C 4.5 °C 1007.7 hPa SSW 12.9 km/h 37 km/h 58% 0 mm
11:50 12.7 °C 4.7 °C 1007.7 hPa SSW 19.3 km/h 32.2 km/h 58% 0 mm
11:55 12.7 °C 4.7 °C 1007.7 hPa SSW 20.9 km/h 35.4 km/h 58% 0 mm
12:00 12.6 °C 4.8 °C 1007.7 hPa SSW 12.9 km/h 38.6 km/h 59% 0 mm
12:05 12.6 °C 4.8 °C 1007.3 hPa SSW 20.9 km/h 43.5 km/h 59% 0 mm
12:10 12.6 °C 4.8 °C 1007.7 hPa SSW 16.1 km/h 43.5 km/h 59% 0 mm
12:15 12.5 °C 4.7 °C 1007.3 hPa SSW 12.9 km/h 29 km/h 59% 0 mm
12:20 12.6 °C 5 °C 1007.7 hPa SSW 16.1 km/h 33.8 km/h 60% 0 mm
12:25 12.6 °C 4.8 °C 1007.3 hPa SSW 9.7 km/h 33.8 km/h 59% 0 mm
12:30 12.7 °C 5.1 °C 1007.3 hPa SSW 14.5 km/h 29 km/h 60% 0 mm
12:35 12.8 °C 4.9 °C 1007 hPa SSW 14.5 km/h 27.4 km/h 59% 0 mm
12:40 13 °C 5.2 °C 1006.7 hPa South 11.3 km/h 27.4 km/h 59% 0 mm
12:45 13.6 °C 5.7 °C 1005.6 hPa SSW 11.3 km/h 22.5 km/h 59% 0 mm
12:50 14.2 °C 5.8 °C 1005.6 hPa South 12.9 km/h 29 km/h 57% 0 mm
12:55 14.2 °C 5.6 °C 1006 hPa SSW 14.5 km/h 33.8 km/h 56% 0 mm
13:00 14.1 °C 5.4 °C 1006 hPa SW 12.9 km/h 33.8 km/h 56% 0 mm
13:05 14.2 °C 5.6 °C 1005.6 hPa SSW 16.1 km/h 35.4 km/h 56% 0 mm
13:10 14.3 °C 5.6 °C 1005.6 hPa SW 17.7 km/h 35.4 km/h 56% 0 mm
13:15 14.2 °C 5.6 °C 1005.6 hPa SW 16.1 km/h 38.6 km/h 56% 0 mm
13:20 14.1 °C 5.4 °C 1005.6 hPa SSW 17.7 km/h 38.6 km/h 56% 0 mm
13:25 13.9 °C 5.5 °C 1005.6 hPa SSW 14.5 km/h 33.8 km/h 57% 0 mm
13:35 13.8 °C 5.4 °C 1005.3 hPa SSW 16.1 km/h 37 km/h 57% 0 mm
13:40 13.7 °C 5.3 °C 1005.3 hPa SW 16.1 km/h 37 km/h 57% 0 mm
13:50 13.8 °C 5.4 °C 1005.3 hPa SSW 24.1 km/h 37 km/h 57% 0 mm
14:00 13.7 °C 5.6 °C 1005.3 hPa SW 11.3 km/h 41.8 km/h 58% 0 mm
14:05 13.8 °C 5.7 °C 1005.3 hPa SSW 19.3 km/h 41.8 km/h 58% 0 mm
14:10 13.8 °C 5.7 °C 1005.3 hPa SW 24.1 km/h 40.2 km/h 58% 0 mm
14:15 13.6 °C 5.7 °C 1005.3 hPa SW 14.5 km/h 40.2 km/h 59% 0 mm
14:20 13.5 °C 5.7 °C 1005 hPa SSW 16.1 km/h 29 km/h 59% 0 mm
14:25 13.6 °C 5.7 °C 1005.3 hPa SW 14.5 km/h 35.4 km/h 59% 0 mm
14:30 13.5 °C 5.9 °C 1005.3 hPa SW 14.5 km/h 35.4 km/h 60% 0 mm
14:40 13.6 °C 5.9 °C 1005.3 hPa SW 16.1 km/h 32.2 km/h 60% 0 mm
14:45 13.5 °C 5.9 °C 1005 hPa SSW 16.1 km/h 32.2 km/h 60% 0 mm
14:50 13.4 °C 5.8 °C 1005 hPa SSW 17.7 km/h 32.2 km/h 60% 0 mm
14:55 13.4 °C 6.3 °C 1005 hPa SW 16.1 km/h 46.7 km/h 62% 0 mm
15:00 13.5 °C 6.4 °C 1005 hPa SSW 14.5 km/h 46.7 km/h 62% 0 mm
15:05 13.4 °C 6.8 °C 1004.6 hPa SW 19.3 km/h 40.2 km/h 64% 0 mm
15:10 13.3 °C 6.7 °C 1004.6 hPa SSW 16.1 km/h 40.2 km/h 64% 0 mm
15:15 13.3 °C 6.7 °C 1004.6 hPa SSW 14.5 km/h 41.8 km/h 64% 0 mm
15:20 13.2 °C 6.8 °C 1004.6 hPa SW 17.7 km/h 41.8 km/h 65% 0 mm
15:25 13.2 °C 6.9 °C 1004.6 hPa SSW 14.5 km/h 35.4 km/h 66% 0 mm
15:30 13.1 °C 7.3 °C 1004.6 hPa SSW 16.1 km/h 37 km/h 68% 0 mm
15:35 12.8 °C 7.5 °C 1004.6 hPa SSW 20.9 km/h 45.1 km/h 70% 0 mm
15:40 12.7 °C 7.6 °C 1004.6 hPa SSW 17.7 km/h 48.3 km/h 71% 0 mm
15:50 12.4 °C 7.7 °C 1004.3 hPa SSW 17.7 km/h 38.6 km/h 73% 0 mm
15:55 12.3 °C 7.8 °C 1004.3 hPa SSW 20.9 km/h 40.2 km/h 74% 0 mm
16:00 12.2 °C 7.9 °C 1004.3 hPa SSW 20.9 km/h 45.1 km/h 75% 0 mm
16:05 12.1 °C 8 °C 1004.3 hPa SSW 22.5 km/h 45.1 km/h 76% 0 mm
16:10 12.1 °C 8 °C 1004.3 hPa SSW 22.5 km/h 40.2 km/h 76% 0 mm
16:15 12.1 °C 8 °C 1003.9 hPa SSW 24.1 km/h 41.8 km/h 76% 0 mm
16:20 12.1 °C 8.2 °C 1003.9 hPa SW 20.9 km/h 41.8 km/h 77% 0 mm
16:30 11.9 °C 8.2 °C 1003.9 hPa SSW 17.7 km/h 37 km/h 78% 0 mm
16:35 11.9 °C 8.2 °C 1003.9 hPa SW 17.7 km/h 41.8 km/h 78% 0 mm
16:40 11.8 °C 8.3 °C 1003.6 hPa SSW 19.3 km/h 41.8 km/h 79% 0 mm
16:50 11.8 °C 8.4 °C 1003.6 hPa SW 17.7 km/h 33.8 km/h 80% 0 mm
17:00 11.6 °C 8.4 °C 1003.6 hPa SSW 14.5 km/h 35.4 km/h 81% 0 mm
17:05 11.7 °C 8.5 °C 1003.3 hPa SSW 19.3 km/h 46.7 km/h 81% 0 mm
17:10 11.6 °C 8.4 °C 1003.3 hPa SSW 19.3 km/h 46.7 km/h 81% 0 mm
17:15 11.7 °C 8.5 °C 1002.9 hPa SSW 20.9 km/h 49.9 km/h 81% 0 mm
17:20 11.7 °C 8.6 °C 1002.9 hPa SSW 17.7 km/h 49.9 km/h 81% 0 mm
17:25 11.8 °C 8.6 °C 1002.9 hPa SSW 19.3 km/h 35.4 km/h 81% 0 mm
17:30 11.8 °C 8.6 °C 1002.9 hPa SW 19.3 km/h 35.4 km/h 81% 0 mm
17:35 11.8 °C 8.6 °C 1002.6 hPa SSW 19.3 km/h 35.4 km/h 81% 0 mm
17:45 11.8 °C 8.9 °C 1002.6 hPa SW 27.4 km/h 49.9 km/h 82% 0 mm
17:50 11.8 °C 8.8 °C 1002.6 hPa SSW 16.1 km/h 49.9 km/h 82% 0 mm
17:55 11.7 °C 8.9 °C 1002.3 hPa SW 17.7 km/h 41.8 km/h 83% 0 mm
18:00 11.7 °C 8.9 °C 1001.9 hPa SSW 22.5 km/h 37 km/h 83% 0 mm
18:05 11.7 °C 8.9 °C 1001.6 hPa SSW 20.9 km/h 43.5 km/h 83% 0 mm
18:10 11.7 °C 8.7 °C 1001.6 hPa SSW 17.7 km/h 43.5 km/h 82% 0 mm
18:15 11.7 °C 8.7 °C 1001.6 hPa SSW 17.7 km/h 38.6 km/h 82% 0 mm
18:20 11.7 °C 8.7 °C 1001.2 hPa SSW 16.1 km/h 35.4 km/h 82% 0 mm
18:25 11.7 °C 8.8 °C 1001.2 hPa SSW 17.7 km/h 33.8 km/h 82% 0 mm
18:35 11.8 °C 8.9 °C 1000.9 hPa SW 20.9 km/h 43.5 km/h 82% 0 mm
18:45 11.8 °C 8.8 °C 1000.9 hPa SSW 19.3 km/h 35.4 km/h 82% 0 mm
18:50 11.8 °C 8.8 °C 1000.9 hPa SSW 17.7 km/h 35.4 km/h 82% 0 mm
19:00 11.9 °C 8.9 °C 1000.9 hPa SSW 16.1 km/h 40.2 km/h 82% 0 mm
19:05 11.9 °C 8.8 °C 1000.9 hPa SSW 17.7 km/h 40.2 km/h 81% 0 mm
19:10 11.9 °C 8.8 °C 1000.9 hPa SSW 19.3 km/h 38.6 km/h 81% 0 mm
19:15 12 °C 8.8 °C 1000.9 hPa SW 22.5 km/h 51.5 km/h 81% 0 mm
19:20 12.1 °C 8.7 °C 1000.6 hPa SSW 12.9 km/h 51.5 km/h 80% 0 mm
19:25 12.2 °C 8.8 °C 1000.6 hPa SSW 19.3 km/h 38.6 km/h 80% 0 mm
19:30 12.2 °C 8.9 °C 1000.2 hPa SSW 16.1 km/h 41.8 km/h 80% 0 mm
19:40 12.2 °C 8.9 °C 1000.2 hPa SSW 14.5 km/h 37 km/h 80% 0 mm
19:45 12.2 °C 8.8 °C 1000.2 hPa SSW 12.9 km/h 29 km/h 80% 0 mm
19:50 12.2 °C 8.8 °C 999.9 hPa SSW 11.3 km/h 32.2 km/h 80% 0 mm
19:55 12.2 °C 8.9 °C 999.9 hPa SW 19.3 km/h 32.2 km/h 80% 0 mm
20:00 12.2 °C 9.2 °C 999.9 hPa SSW 14.5 km/h 37 km/h 82% 0 mm
20:05 12.2 °C 8.9 °C 999.9 hPa SSW 17.7 km/h 37 km/h 80% 0 mm
20:10 12.2 °C 8.9 °C 999.5 hPa SSW 17.7 km/h 38.6 km/h 80% 0 mm
20:15 12.2 °C 9.4 °C 999.5 hPa SW 16.1 km/h 38.6 km/h 83% 0 mm
20:20 12.1 °C 8.8 °C 999.9 hPa SW 14.5 km/h 32.2 km/h 80% 0 mm
20:25 12.2 °C 8.8 °C 1000.2 hPa SW 12.9 km/h 29 km/h 80% 0 mm
20:30 11.9 °C 8.4 °C 1001.6 hPa NW 24.1 km/h 33.8 km/h 79% 0 mm
20:35 10 °C 6.3 °C 1001.6 hPa NNW 16.1 km/h 33.8 km/h 78% 0 mm
20:40 8.4 °C 5.6 °C 1001.9 hPa NW 16.1 km/h 29 km/h 82% 0 mm
20:50 6.9 °C 4.6 °C 1002.6 hPa NNW 12.9 km/h 29 km/h 85% 0 mm
20:55 6.5 °C 4.3 °C 1002.9 hPa NW 16.1 km/h 29 km/h 86% 0 mm
21:00 6.2 °C 4 °C 1002.9 hPa NW 22.5 km/h 35.4 km/h 86% 0 mm
21:05 5.9 °C 3.9 °C 1003.3 hPa NW 12.9 km/h 35.4 km/h 87% 0 mm
21:10 5.7 °C 3.7 °C 1003.6 hPa NW 19.3 km/h 32.2 km/h 87% 0 mm
21:15 5.6 °C 3.7 °C 1003.6 hPa NW 16.1 km/h 32.2 km/h 88% 0 mm
21:20 5.2 °C 3.2 °C 1003.9 hPa WNW 24.1 km/h 46.7 km/h 87% 0 mm
21:25 4.8 °C 2.5 °C 1003.9 hPa WNW 22.5 km/h 46.7 km/h 85% 0 mm
21:30 4.6 °C 1.9 °C 1004.6 hPa WNW 24.1 km/h 45.1 km/h 83% 0 mm
21:35 4.4 °C 1.8 °C 1004.6 hPa WNW 22.5 km/h 45.1 km/h 83% 0 mm
21:40 4.3 °C 1.7 °C 1004.6 hPa WNW 16.1 km/h 41.8 km/h 83% 0 mm
21:50 4 °C 1.1 °C 1005 hPa WNW 24.1 km/h 40.2 km/h 81% 0 mm
21:55 3.9 °C 1 °C 1005 hPa WNW 17.7 km/h 40.2 km/h 81% 0 mm
22:00 3.8 °C 0.8 °C 1005.3 hPa West 14.5 km/h 33.8 km/h 81% 0 mm
22:05 3.6 °C 0.7 °C 1005.3 hPa WNW 17.7 km/h 33.8 km/h 81% 0 mm
22:10 3.6 °C 0.4 °C 1005 hPa West 19.3 km/h 29 km/h 80% 0 mm
22:15 3.4 °C 0.2 °C 1005.3 hPa WNW 14.5 km/h 33.8 km/h 79% 0 mm
22:20 3.4 °C 0.1 °C 1005.3 hPa WNW 17.7 km/h 33.8 km/h 79% 0 mm
22:25 3.4 °C 0.1 °C 1005.6 hPa WNW 9.7 km/h 30.6 km/h 79% 0 mm
22:30 3.3 °C -0.1 °C 1005.6 hPa West 11.3 km/h 24.1 km/h 78% 0 mm
22:35 3.3 °C -0.1 °C 1005.6 hPa WNW 11.3 km/h 20.9 km/h 78% 0 mm
22:40 3.3 °C -0.2 °C 1006 hPa West 11.3 km/h 19.3 km/h 78% 0 mm
22:45 3.3 °C -0.2 °C 1006 hPa West 14.5 km/h 25.7 km/h 78% 0 mm
22:50 3.3 °C -0.3 °C 1006 hPa WSW 8 km/h 25.7 km/h 77% 0 mm
22:55 3.3 °C -0.5 °C 1006.3 hPa WSW 6.4 km/h 25.7 km/h 76% 0 mm
23:00 3.3 °C -0.5 °C 1006 hPa West 9.7 km/h 19.3 km/h 76% 0 mm
23:05 3.3 °C -0.5 °C 1006 hPa West 6.4 km/h 17.7 km/h 76% 0 mm
23:10 3.2 °C -0.4 °C 1006.3 hPa SW 4.8 km/h 17.7 km/h 77% 0 mm
23:15 3.2 °C -0.5 °C 1006.3 hPa WSW 1.6 km/h 11.3 km/h 77% 0 mm
23:20 3.1 °C -0.6 °C 1006 hPa WSW 3.2 km/h 11.3 km/h 77% 0 mm
23:30 3 °C -0.6 °C 1006 hPa WSW 6.4 km/h 17.7 km/h 77% 0 mm
23:35 3 °C -0.8 °C 1006.3 hPa WSW 4.8 km/h 19.3 km/h 76% 0 mm
23:40 3 °C -0.8 °C 1006.3 hPa WSW 8 km/h 19.3 km/h 76% 0 mm
23:50 2.9 °C -1.1 °C 1006.3 hPa WSW 6.4 km/h 24.1 km/h 75% 0 mm
23:55 2.9 °C -1.4 °C 1006.3 hPa West 14.5 km/h 24.1 km/h 73% 0 mm
Westford Weather
Compliments of Weather Underground

 
 
Current Radar Loop:

Copyright © WestfordWeather.net 2007-2014. All rights reserved.